sat.trackr.live / text

‹ back to catalog

CALSPHERE 2

NORAD 902 · 1964-063E

PAYLOAD ACTIVE UNKNOWN

§ Identity

Operator
Country
US
Launch date
1964-10-06
Launch site
AFWTR
Launch vehicle
Mass (kg)
RCS (m²)
0.05

Purposes: military

External: N2YO · Heavens-Above · Gunter

§ Orbital elements

Epoch: 2026-09-19T22:34:23.531232Z

Period
106.44 min
Inclination
90.2290°
Eccentricity
0.0017221
Mean motion
13.52906453 rev/d
Perigee alt
1,048.8 km
Apogee alt
1,074.4 km
Semi-major
7,439.7 km
B*
3.4017e-5
RAAN
78.0218°
Arg perigee
316.8762°
Mean anomaly
200.2477°
Rev number
86,907

§ Raw data

CALSPHERE 21 00902U 64063E   26262.94055013  .00000031  00000+0  34017-4 0  99972 00902  90.2290  78.0218 0017221 316.8762 200.2477 13.52906453869077

JSON: /api/v1/satellites/902 · /tle

For live sub-satellite position, see the globe view (requires WebGL).

§ Visibility from observer

Set your observer location to see the next 7 days of passes ≥ 10°. The values pass through the URL so the page stays shareable.

No JS? Fill the form by hand. The geolocation button needs JavaScript.